KAL249 PANC-KJFK

Flight info

Callsign KAL249
Flight time N/A
Altitude 31000
Route ANCH1 MDO YAK DEEJA 58N130W 56N120W/N0481F330 WAINN 50N100W DLH TWIGS JHW Q476 WLKES
Aircraft B77L/H-SDE1E2E3FGHIJ2J3J4J5M1RWXY/LB1D1

Departure

Time 2026-05-06 02:38
Airport Ted Stevens Anchorage International Airport (PANC)

Arrival

Time N/A
Airport John F. Kennedy International Airport (KJFK)
Time Latitude Longitude Altitude Speed Heading
2026-05-06 02:04 61.17522 -149.98771 110 ft 0 kts 28°
2026-05-06 02:06 61.17521 -149.98772 110 ft 0 kts 28°
2026-05-06 02:07 61.17521 -149.98771 110 ft 0 kts 28°
2026-05-06 02:07 61.17521 -149.98772 110 ft 0 kts 28°
2026-05-06 02:19 61.17521 -149.98773 110 ft 0 kts 28°
2026-05-06 02:22 61.17504 -149.98791 107 ft 3 kts 28°
2026-05-06 02:23 61.17483 -149.98814 107 ft 3 kts 28°
2026-05-06 02:23 61.17462 -149.98837 107 ft 3 kts 28°
2026-05-06 02:23 61.17442 -149.98860 107 ft 3 kts 28°
2026-05-06 02:23 61.17424 -149.98879 108 ft 3 kts 42°
2026-05-06 02:24 61.17417 -149.98891 108 ft 3 kts 95°
2026-05-06 02:24 61.17421 -149.98911 109 ft 3 kts 143°
2026-05-06 02:24 61.17440 -149.98931 106 ft 4 kts 163°
2026-05-06 02:24 61.17463 -149.98942 108 ft 3 kts 171°
2026-05-06 02:25 61.17485 -149.98952 107 ft 2 kts 160°
2026-05-06 02:25 61.17487 -149.98953 107 ft 0 kts 160°
2026-05-06 02:27 61.17481 -149.98949 109 ft 4 kts 162°
2026-05-06 02:27 61.17430 -149.98924 107 ft 9 kts 161°
2026-05-06 02:28 61.17369 -149.98879 110 ft 9 kts 160°
2026-05-06 02:28 61.17309 -149.98833 111 ft 9 kts 160°
2026-05-06 02:28 61.17248 -149.98787 114 ft 9 kts 160°
2026-05-06 02:28 61.17188 -149.98743 114 ft 9 kts 161°
2026-05-06 02:29 61.17133 -149.98679 115 ft 9 kts 131°
2026-05-06 02:29 61.17117 -149.98553 117 ft 9 kts 91°
2026-05-06 02:29 61.17117 -149.98420 117 ft 9 kts 89°
2026-05-06 02:29 61.17117 -149.98286 116 ft 9 kts 90°
2026-05-06 02:30 61.17117 -149.98153 116 ft 9 kts 90°
2026-05-06 02:30 61.17117 -149.98020 116 ft 9 kts 90°
2026-05-06 02:30 61.17117 -149.97884 114 ft 10 kts 90°
2026-05-06 02:30 61.17117 -149.97737 112 ft 10 kts 89°
2026-05-06 02:31 61.17117 -149.97637 110 ft 11 kts 90°
2026-05-06 02:31 61.17119 -149.97480 109 ft 11 kts 86°
2026-05-06 02:31 61.17124 -149.97322 107 ft 11 kts 86°
2026-05-06 02:31 61.17127 -149.97093 103 ft 12 kts 90°
2026-05-06 02:32 61.17127 -149.96973 102 ft 13 kts 90°
2026-05-06 02:32 61.17127 -149.96792 101 ft 13 kts 90°
2026-05-06 02:32 61.17127 -149.96610 101 ft 13 kts 89°
2026-05-06 02:32 61.17128 -149.96429 101 ft 13 kts 90°
2026-05-06 02:33 61.17128 -149.96248 100 ft 13 kts 90°
2026-05-06 02:33 61.17128 -149.96128 100 ft 13 kts 90°
2026-05-06 02:34 61.17128 -149.95523 101 ft 13 kts 89°
2026-05-06 02:34 61.17129 -149.95342 101 ft 13 kts 90°
2026-05-06 02:34 61.17129 -149.95161 100 ft 13 kts 90°
2026-05-06 02:34 61.17129 -149.94980 100 ft 13 kts 90°
2026-05-06 02:35 61.17108 -149.94839 102 ft 9 kts 143°
2026-05-06 02:35 61.17083 -149.94833 103 ft 0 kts 180°
2026-05-06 02:36 61.17082 -149.94833 102 ft 1 kts 180°
2026-05-06 02:36 61.17048 -149.94837 104 ft 7 kts 186°
2026-05-06 02:36 61.17001 -149.94866 107 ft 7 kts 213°
2026-05-06 02:36 61.16982 -149.94955 106 ft 7 kts 264°
2026-05-06 02:37 61.16982 -149.95109 105 ft 23 kts 270°
2026-05-06 02:37 61.16981 -149.95999 105 ft 102 kts 270°
2026-05-06 02:37 61.16978 -149.97990 115 ft 172 kts 270°
2026-05-06 02:37 61.16986 -150.00863 255 ft 214 kts 266°
2026-05-06 02:38 61.16971 -150.03882 1147 ft 200 kts 266°
2026-05-06 02:38 61.16914 -150.06780 1819 ft 208 kts 266°
2026-05-06 02:38 61.16848 -150.09931 2072 ft 231 kts 266°
2026-05-06 02:38 61.16780 -150.13365 2524 ft 243 kts 266°
2026-05-06 02:39 61.16705 -150.16932 3111 ft 253 kts 266°
2026-05-06 02:39 61.16626 -150.20614 3732 ft 260 kts 266°
2026-05-06 02:39 61.16548 -150.24387 4478 ft 263 kts 266°
2026-05-06 02:39 61.16470 -150.28193 5226 ft 266 kts 266°
2026-05-06 02:40 61.16403 -150.32037 5980 ft 268 kts 266°
2026-05-06 02:40 61.16328 -150.35913 6699 ft 271 kts 266°
2026-05-06 02:40 61.16251 -150.39881 7408 ft 274 kts 266°
2026-05-06 02:40 61.16181 -150.43793 8108 ft 277 kts 266°
2026-05-06 02:41 61.16113 -150.47788 8815 ft 279 kts 266°
2026-05-06 02:41 61.16039 -150.51830 9489 ft 282 kts 266°
2026-05-06 02:41 61.15966 -150.55907 10128 ft 284 kts 267°
2026-05-06 02:41 61.15899 -150.60077 10503 ft 298 kts 267°
2026-05-06 02:42 61.15532 -150.64388 10611 ft 314 kts 246°
2026-05-06 02:42 61.14296 -150.68241 10797 ft 333 kts 223°
2026-05-06 02:42 61.12313 -150.70919 10976 ft 352 kts 200°
2026-05-06 02:42 61.09880 -150.71793 11518 ft 361 kts 179°
2026-05-06 02:43 61.07404 -150.70769 12124 ft 370 kts 158°
2026-05-06 02:43 61.05203 -150.67951 12729 ft 378 kts 140°
2026-05-06 02:43 61.03376 -150.63987 13376 ft 385 kts 129°
2026-05-06 02:43 61.01788 -150.59511 14018 ft 389 kts 125°
2026-05-06 02:44 61.00278 -150.54842 14657 ft 393 kts 124°
2026-05-06 02:44 60.98770 -150.50109 15288 ft 397 kts 124°
2026-05-06 02:44 60.97235 -150.45357 15909 ft 401 kts 125°
2026-05-06 02:44 60.95657 -150.40582 16519 ft 405 kts 125°
2026-05-06 02:45 60.94043 -150.35792 17127 ft 409 kts 126°
2026-05-06 02:45 60.92397 -150.30981 17734 ft 413 kts 126°
2026-05-06 02:45 60.90725 -150.26144 18298 ft 417 kts 127°
2026-05-06 02:45 60.89031 -150.21276 18819 ft 421 kts 127°
2026-05-06 02:46 60.87318 -150.16378 19359 ft 424 kts 127°
2026-05-06 02:46 60.85594 -150.11461 19868 ft 427 kts 127°
2026-05-06 02:46 60.83907 -150.06404 20374 ft 431 kts 125°
2026-05-06 02:46 60.82252 -150.01247 20869 ft 435 kts 125°
2026-05-06 02:47 60.80568 -149.96072 21379 ft 438 kts 126°
2026-05-06 02:47 60.78837 -149.90904 21879 ft 442 kts 126°
2026-05-06 02:47 60.77060 -149.85740 22372 ft 445 kts 127°
2026-05-06 02:47 60.75270 -149.80646 22859 ft 449 kts 128°
2026-05-06 02:48 60.73428 -149.75465 23321 ft 453 kts 128°
2026-05-06 02:48 60.71560 -149.70253 23743 ft 456 kts 128°
2026-05-06 02:48 60.69678 -149.65024 24132 ft 459 kts 128°
2026-05-06 02:48 60.67779 -149.59761 24542 ft 462 kts 128°
2026-05-06 02:49 60.65866 -149.54471 24932 ft 465 kts 129°
2026-05-06 02:49 60.63936 -149.49140 25308 ft 469 kts 129°
2026-05-06 02:49 60.61993 -149.43780 25684 ft 472 kts 129°
2026-05-06 02:49 60.60036 -149.38394 26055 ft 475 kts 129°
2026-05-06 02:50 60.58062 -149.32975 26414 ft 478 kts 129°
2026-05-06 02:50 60.56075 -149.27527 26768 ft 482 kts 129°
2026-05-06 02:50 60.54068 -149.22042 27111 ft 485 kts 130°
2026-05-06 02:50 60.52050 -149.16538 27461 ft 488 kts 130°
2026-05-06 02:51 60.50013 -149.10997 27815 ft 491 kts 130°
2026-05-06 02:51 60.47965 -149.05437 28149 ft 494 kts 130°
2026-05-06 02:51 60.45898 -148.99840 28467 ft 497 kts 130°
2026-05-06 02:51 60.43820 -148.94225 28777 ft 500 kts 130°
2026-05-06 02:52 60.41727 -148.88584 29085 ft 502 kts 130°
2026-05-06 02:52 60.39624 -148.82930 29478 ft 503 kts 131°
2026-05-06 02:52 60.37520 -148.77284 29941 ft 502 kts 131°
2026-05-06 02:52 60.35419 -148.71660 30311 ft 501 kts 131°
2026-05-06 02:53 60.33320 -148.66054 30682 ft 500 kts 131°
2026-05-06 02:53 60.31211 -148.60438 30794 ft 504 kts 131°
2026-05-06 02:53 60.29088 -148.54805 30830 ft 505 kts 131°
2026-05-06 02:54 60.24848 -148.43580 30835 ft 500 kts 131°
2026-05-06 02:54 60.20635 -148.32479 30851 ft 499 kts 131°
2026-05-06 02:55 60.16408 -148.21406 30858 ft 500 kts 132°
2026-05-06 02:55 60.12159 -148.10322 30863 ft 501 kts 132°
2026-05-06 02:56 60.07926 -147.99333 30871 ft 502 kts 132°
2026-05-06 02:56 60.03649 -147.88278 30868 ft 502 kts 133°
2026-05-06 02:57 59.99366 -147.77262 30858 ft 502 kts 133°
2026-05-06 02:57 59.95075 -147.66277 30845 ft 501 kts 133°
2026-05-06 02:58 59.90778 -147.55329 30823 ft 501 kts 133°
2026-05-06 02:58 59.86473 -147.44414 30816 ft 501 kts 133°
2026-05-06 02:59 59.82161 -147.33529 30812 ft 501 kts 134°
2026-05-06 02:59 59.77843 -147.22683 30806 ft 500 kts 134°
2026-05-06 03:00 59.73526 -147.11886 30813 ft 499 kts 134°
2026-05-06 03:00 59.69202 -147.01122 30814 ft 499 kts 134°
2026-05-06 03:01 59.64870 -146.90389 30823 ft 499 kts 134°
2026-05-06 03:01 59.60530 -146.79685 30835 ft 499 kts 134°
2026-05-06 03:02 59.56210 -146.69079 30847 ft 499 kts 135°
2026-05-06 03:02 59.51852 -146.58426 30856 ft 499 kts 135°
2026-05-06 03:03 59.47492 -146.47810 30863 ft 499 kts 135°
2026-05-06 03:03 59.43602 -146.36509 30867 ft 510 kts 116°
2026-05-06 03:03 59.42615 -146.29757 30876 ft 520 kts 103°
2026-05-06 03:04 59.42417 -146.22641 30862 ft 525 kts 89°
2026-05-06 03:04 59.43066 -146.08335 30868 ft 527 kts 87°
2026-05-06 03:05 59.43698 -145.93962 30871 ft 529 kts 88°
2026-05-06 03:05 59.44242 -145.79525 30865 ft 530 kts 89°
2026-05-06 03:06 59.44733 -145.65050 30870 ft 531 kts 89°
2026-05-06 03:06 59.45205 -145.50545 30877 ft 531 kts 89°
2026-05-06 03:07 59.45664 -145.36072 30871 ft 530 kts 89°
2026-05-06 03:07 59.46110 -145.21608 30886 ft 529 kts 89°
2026-05-06 03:08 59.46540 -145.07174 30881 ft 528 kts 90°
2026-05-06 03:08 59.46950 -144.92858 30890 ft 528 kts 90°
2026-05-06 03:09 59.47346 -144.78448 30897 ft 528 kts 90°
2026-05-06 03:09 59.47726 -144.64030 30902 ft 528 kts 90°
2026-05-06 03:10 59.48091 -144.49611 30907 ft 528 kts 90°
2026-05-06 03:10 59.48440 -144.35178 30910 ft 528 kts 90°
2026-05-06 03:11 59.48773 -144.20749 30915 ft 528 kts 91°
2026-05-06 03:11 59.49090 -144.06312 30916 ft 528 kts 91°
2026-05-06 03:12 59.49391 -143.91869 30923 ft 528 kts 91°
2026-05-06 03:12 59.49677 -143.77421 30930 ft 528 kts 91°
2026-05-06 03:13 59.49946 -143.62962 30931 ft 528 kts 91°
2026-05-06 03:13 59.50200 -143.48512 30940 ft 528 kts 91°
2026-05-06 03:14 59.50437 -143.34067 30937 ft 528 kts 92°
2026-05-06 03:14 59.50659 -143.19622 30948 ft 527 kts 92°
2026-05-06 03:15 59.50864 -143.05193 30948 ft 527 kts 92°
2026-05-06 03:15 59.51052 -142.90875 30951 ft 527 kts 92°
2026-05-06 03:16 59.51226 -142.76465 30955 ft 526 kts 92°
2026-05-06 03:16 59.51383 -142.62053 30965 ft 526 kts 92°
2026-05-06 03:17 59.51525 -142.47643 30960 ft 526 kts 92°
2026-05-06 03:17 59.51650 -142.33234 30977 ft 526 kts 93°
2026-05-06 03:18 59.51760 -142.18825 30971 ft 526 kts 93°
2026-05-06 03:18 59.51855 -142.04414 30980 ft 526 kts 93°
2026-05-06 03:19 59.51933 -141.90021 30976 ft 525 kts 93°
2026-05-06 03:19 59.51995 -141.75639 30985 ft 525 kts 94°
2026-05-06 03:20 59.52059 -141.54075 30983 ft 525 kts 94°
2026-05-06 03:20 59.52082 -141.39713 30991 ft 524 kts 94°
2026-05-06 03:21 59.52089 -141.27771 30993 ft 524 kts 94°
2026-05-06 03:21 59.52083 -141.13402 30990 ft 525 kts 94°
2026-05-06 03:22 59.52061 -140.99026 31000 ft 525 kts 94°
2026-05-06 03:22 59.52024 -140.84656 31003 ft 525 kts 94°
2026-05-06 03:23 59.51971 -140.70272 31003 ft 525 kts 95°
2026-05-06 03:23 59.51902 -140.55900 31015 ft 525 kts 95°
2026-05-06 03:24 59.51817 -140.41510 31019 ft 525 kts 95°
2026-05-06 03:24 59.51717 -140.27136 31025 ft 525 kts 95°
2026-05-06 03:25 59.51600 -140.12750 31029 ft 525 kts 95°
2026-05-06 03:25 59.51469 -139.98364 31042 ft 525 kts 95°
2026-05-06 03:26 59.51323 -139.84076 31044 ft 525 kts 95°
2026-05-06 03:26 59.51152 -139.69714 31045 ft 524 kts 97°
2026-05-06 03:27 59.50194 -139.55611 31041 ft 516 kts 108°
2026-05-06 03:27 59.48582 -139.41870 31037 ft 515 kts 108°
2026-05-06 03:28 59.46966 -139.28138 31041 ft 515 kts 108°
2026-05-06 03:28 59.45374 -139.14406 31047 ft 515 kts 108°
2026-05-06 03:29 59.43784 -139.00665 31046 ft 516 kts 108°
2026-05-06 03:29 59.42181 -138.86934 31050 ft 516 kts 108°
2026-05-06 03:30 59.40558 -138.73201 31042 ft 517 kts 108°
2026-05-06 03:30 59.38921 -138.59487 31059 ft 516 kts 108°
2026-05-06 03:31 59.37273 -138.45798 31047 ft 515 kts 108°
2026-05-06 03:31 59.35611 -138.32148 31065 ft 514 kts 108°
2026-05-06 03:32 59.33936 -138.18525 31080 ft 515 kts 108°
2026-05-06 03:32 59.32246 -138.04894 31068 ft 515 kts 108°
2026-05-06 03:33 59.30539 -137.91274 31053 ft 515 kts 108°
2026-05-06 03:33 59.28821 -137.77679 31052 ft 515 kts 108°
2026-05-06 03:34 59.27091 -137.64109 31037 ft 514 kts 108°
2026-05-06 03:34 59.25350 -137.50582 31023 ft 512 kts 109°
2026-05-06 03:35 59.23604 -137.37130 31043 ft 510 kts 109°
2026-05-06 03:35 59.21849 -137.23740 31052 ft 509 kts 109°
2026-05-06 03:36 59.20079 -137.10364 31038 ft 509 kts 109°
2026-05-06 03:36 59.18292 -136.96968 31043 ft 510 kts 109°
2026-05-06 03:37 59.16493 -136.83589 31043 ft 510 kts 109°
2026-05-06 03:37 59.14681 -136.70235 31048 ft 510 kts 109°
2026-05-06 03:38 59.12851 -136.56880 31040 ft 510 kts 109°
2026-05-06 03:38 59.11009 -136.43529 31027 ft 511 kts 109°
2026-05-06 03:39 59.09152 -136.30187 31031 ft 511 kts 109°
2026-05-06 03:39 59.07279 -136.16851 31026 ft 511 kts 109°
2026-05-06 03:40 59.05395 -136.03541 31020 ft 510 kts 110°
2026-05-06 03:40 59.03503 -135.90277 31014 ft 509 kts 110°
2026-05-06 03:41 59.01597 -135.77050 31031 ft 509 kts 110°
2026-05-06 03:41 58.99679 -135.63826 31032 ft 509 kts 110°
2026-05-06 03:42 58.97757 -135.50692 30997 ft 509 kts 110°
2026-05-06 03:42 58.95820 -135.37532 31032 ft 507 kts 110°
2026-05-06 03:43 58.93861 -135.24384 31036 ft 509 kts 111°
2026-05-06 03:43 58.91885 -135.11180 31041 ft 512 kts 111°
2026-05-06 03:44 58.89886 -134.97937 31044 ft 513 kts 111°
2026-05-06 03:44 58.87812 -134.84709 31053 ft 515 kts 112°
2026-05-06 03:45 58.85693 -134.71471 31046 ft 516 kts 112°
2026-05-06 03:45 58.83567 -134.58241 31046 ft 515 kts 113°
2026-05-06 03:46 58.81445 -134.45070 31084 ft 514 kts 113°
2026-05-06 03:46 58.79310 -134.31917 31086 ft 513 kts 113°
2026-05-06 03:47 58.77164 -134.18787 31079 ft 513 kts 114°
2026-05-06 03:47 58.75000 -134.05675 31077 ft 514 kts 114°
2026-05-06 03:48 58.72819 -133.92546 31079 ft 515 kts 114°
2026-05-06 03:48 58.70624 -133.79430 31077 ft 516 kts 114°
2026-05-06 03:49 58.68407 -133.66271 31080 ft 519 kts 115°
2026-05-06 03:49 58.66165 -133.53070 31100 ft 520 kts 115°
2026-05-06 03:50 58.63925 -133.39964 31092 ft 521 kts 115°
2026-05-06 03:50 58.61649 -133.26746 31087 ft 521 kts 115°
2026-05-06 03:51 58.59362 -133.13553 31072 ft 521 kts 115°
2026-05-06 03:51 58.57061 -133.00385 31071 ft 521 kts 115°
2026-05-06 03:52 58.54751 -132.87259 31074 ft 520 kts 115°
2026-05-06 03:52 58.52425 -132.74143 31071 ft 520 kts 116°
2026-05-06 03:53 58.50090 -132.61052 31044 ft 519 kts 116°
2026-05-06 03:53 58.47747 -132.48017 31029 ft 518 kts 116°
2026-05-06 03:54 58.45393 -132.35013 31044 ft 518 kts 116°
2026-05-06 03:54 58.43019 -132.22002 31003 ft 519 kts 116°
2026-05-06 03:55 58.40633 -132.08993 31016 ft 520 kts 116°
2026-05-06 03:55 58.38233 -131.96003 31005 ft 520 kts 116°
2026-05-06 03:56 58.35813 -131.83001 30998 ft 521 kts 116°
2026-05-06 03:56 58.33378 -131.69995 30985 ft 521 kts 116°
2026-05-06 03:57 58.30933 -131.57026 30982 ft 520 kts 116°
2026-05-06 03:57 58.28479 -131.44098 30968 ft 519 kts 116°
2026-05-06 03:58 58.26017 -131.31215 30958 ft 519 kts 116°
2026-05-06 03:58 58.23562 -131.18456 30951 ft 518 kts 116°
2026-05-06 03:59 58.21062 -131.05551 30941 ft 518 kts 116°
2026-05-06 03:59 58.18583 -130.92836 30941 ft 518 kts 116°
2026-05-06 04:00 58.16074 -130.80053 30937 ft 519 kts 116°
2026-05-06 04:00 58.13520 -130.67139 31299 ft 525 kts 116°
2026-05-06 04:01 58.12243 -130.60696 31701 ft 523 kts 116°
2026-05-06 04:01 58.10963 -130.54253 31968 ft 524 kts 116°
2026-05-06 04:01 58.09673 -130.47789 32182 ft 526 kts 116°
2026-05-06 04:01 58.08375 -130.41312 32433 ft 527 kts 116°
2026-05-06 04:02 58.07072 -130.34833 32715 ft 528 kts 116°
2026-05-06 04:02 58.05765 -130.28358 32871 ft 529 kts 116°
2026-05-06 04:02 58.03131 -130.15355 32911 ft 530 kts 116°
2026-05-06 04:03 58.00495 -130.02409 32915 ft 528 kts 116°
2026-05-06 04:03 57.98267 -129.89174 32907 ft 530 kts 110°
2026-05-06 04:04 57.96267 -129.75813 32891 ft 530 kts 110°
2026-05-06 04:04 57.94252 -129.62478 32914 ft 529 kts 110°
2026-05-06 04:05 57.92200 -129.49178 32914 ft 529 kts 110°
2026-05-06 04:05 57.90121 -129.35910 32889 ft 529 kts 110°
2026-05-06 04:06 57.88031 -129.22669 32889 ft 528 kts 111°
2026-05-06 04:06 57.85948 -129.09562 32888 ft 527 kts 111°
2026-05-06 04:07 57.83839 -128.96380 32887 ft 526 kts 111°
2026-05-06 04:07 57.81722 -128.83255 32881 ft 525 kts 111°
2026-05-06 04:08 57.79593 -128.70154 32879 ft 525 kts 111°
2026-05-06 04:08 57.77455 -128.57098 32873 ft 524 kts 111°
2026-05-06 04:09 57.75305 -128.44067 32867 ft 523 kts 111°
2026-05-06 04:09 57.73514 -128.33276 32858 ft 522 kts 111°
2026-05-06 04:10 57.71351 -128.20343 32864 ft 521 kts 111°
2026-05-06 04:10 57.69177 -128.07431 32848 ft 520 kts 111°
2026-05-06 04:11 57.66994 -127.94563 32850 ft 519 kts 111°
2026-05-06 04:11 57.64801 -127.81731 32856 ft 519 kts 111°
2026-05-06 04:12 57.62596 -127.68915 32850 ft 519 kts 111°
2026-05-06 04:12 57.60376 -127.56103 32841 ft 519 kts 111°
2026-05-06 04:13 57.58142 -127.43309 32848 ft 519 kts 111°
2026-05-06 04:13 57.55897 -127.30533 32839 ft 519 kts 111°
2026-05-06 04:14 57.53639 -127.17773 32843 ft 519 kts 112°
2026-05-06 04:14 57.51368 -127.05029 32840 ft 519 kts 112°